When you browse on this site, cookies collect data to enhance your experience and personalize the content and advertising you see.
Visit our Privacy Policy to learn more. By continuing to use the site, you agree to this use of cookies and data.
  • In Spain
  • List of Countries
  • For 7 days
  • Water Temperature
  • Satellite Maps
  • Weather Map
  • Weather Widgets
  • user-avatar
    Login

    Hourly Weather Budkovo

    Today, 19 July, Friday

    Time Temperature Precipitation Wind Pressure Humidity
    00:00 +13°C° 0.8 mm 4 mps 736 mmHg 97%
    01:00 +13°C° 0.8 mm 4 mps 736 mmHg 97%
    02:00 +13°C° 0.8 mm 5 mps 736 mmHg 96%
    03:00 +13°C° 0.4 mm 5 mps 736 mmHg 97%
    04:00 +13°C° 0.4 mm 5 mps 736 mmHg 97%
    05:00 +13°C° 0.4 mm 5 mps 737 mmHg 97%
    06:00 +13°C° 0.4 mm 5 mps 737 mmHg 96%
    07:00 +14°C° 0.4 mm 5 mps 737 mmHg 96%
    08:00 +14°C° 0.4 mm 5 mps 738 mmHg 95%
    09:00 +14°C° 0.4 mm 5 mps 738 mmHg 95%
    10:00 +14°C° 0.4 mm 6 mps 738 mmHg 94%
    11:00 +14°C° 0.4 mm 6 mps 739 mmHg 94%
    12:00 +15°C° 0.1 mm 6 mps 739 mmHg 91%
    13:00 +16°C° 0.1 mm 6 mps 739 mmHg 87%
    14:00 +16°C° 0.1 mm 6 mps 739 mmHg 84%
    15:00 +17°C° 0 mm 6 mps 740 mmHg 82%
    16:00 +17°C° 0 mm 6 mps 740 mmHg 80%
    17:00 +17°C° 0 mm 6 mps 740 mmHg 78%
    18:00 +16°C° 0 mm 5 mps 740 mmHg 80%
    19:00 +15°C° 0 mm 4 mps 741 mmHg 81%
    20:00 +14°C° 0 mm 4 mps 741 mmHg 83%
    21:00 +14°C° 0 mm 4 mps 741 mmHg 83%
    22:00 +14°C° 0 mm 4 mps 741 mmHg 83%
    23:00 +14°C° 0 mm 4 mps 741 mmHg 82%

    Tomorrow, 20 July, Saturday

    Time Temperature Precipitation Wind Pressure Humidity
    00:00 +14°C° 0 mm 4 mps 742 mmHg 86%
    01:00 +13°C° 0 mm 4 mps 742 mmHg 89%
    02:00 +12°C° 0 mm 4 mps 742 mmHg 93%
    03:00 +12°C° 0 mm 3 mps 742 mmHg 93%
    04:00 +12°C° 0 mm 3 mps 742 mmHg 93%
    05:00 +12°C° 0 mm 3 mps 743 mmHg 94%
    06:00 +13°C° 0 mm 3 mps 743 mmHg 90%
    07:00 +15°C° 0 mm 4 mps 743 mmHg 86%
    08:00 +17°C° 0 mm 4 mps 744 mmHg 82%
    09:00 +18°C° 0.1 mm 4 mps 744 mmHg 79%
    10:00 +19°C° 0.1 mm 5 mps 744 mmHg 76%
    11:00 +21°C° 0.1 mm 5 mps 745 mmHg 74%
    12:00 +21°C° 0.4 mm 5 mps 745 mmHg 73%
    13:00 +21°C° 0.4 mm 5 mps 744 mmHg 73%
    14:00 +22°C° 0.4 mm 5 mps 744 mmHg 73%
    15:00 +22°C° 0.3 mm 4 mps 745 mmHg 74%
    16:00 +22°C° 0.3 mm 4 mps 745 mmHg 75%
    17:00 +22°C° 0.3 mm 3 mps 745 mmHg 76%
    18:00 +20°C° 0 mm 3 mps 745 mmHg 78%
    19:00 +18°C° 0 mm 3 mps 745 mmHg 81%
    20:00 +17°C° 0 mm 3 mps 745 mmHg 83%
    21:00 +16°C° 0 mm 2 mps 745 mmHg 84%
    22:00 +15°C° 0 mm 2 mps 746 mmHg 85%
    23:00 +14°C° 0 mm 2 mps 746 mmHg 86%

    Day after tomorrow, 21 July, Sunday

    Time Temperature Precipitation Wind Pressure Humidity
    00:00 +14°C° 0 mm 2 mps 746 mmHg 86%
    01:00 +14°C° 0 mm 2 mps 746 mmHg 87%
    02:00 +13°C° 0 mm 2 mps 746 mmHg 88%
    03:00 +13°C° 0 mm 2 mps 746 mmHg 88%
    04:00 +13°C° 0 mm 2 mps 746 mmHg 88%
    05:00 +13°C° 0 mm 2 mps 746 mmHg 88%
    06:00 +15°C° 0 mm 1 mps 746 mmHg 84%
    07:00 +18°C° 0 mm 1 mps 746 mmHg 79%
    08:00 +20°C° 0 mm 1 mps 747 mmHg 75%
    09:00 +20°C° 0 mm 2 mps 747 mmHg 71%
    10:00 +23°C° 0 mm 2 mps 747 mmHg 67%
    11:00 +24°C° 0 mm 2 mps 747 mmHg 63%
    12:00 +24°C° 0 mm 2 mps 747 mmHg 61%
    13:00 +25°C° 0 mm 2 mps 746 mmHg 60%
    14:00 +25°C° 0 mm 3 mps 746 mmHg 59%
    15:00 +25°C° 0 mm 2 mps 746 mmHg 61%
    16:00 +25°C° 0 mm 2 mps 746 mmHg 63%
    17:00 +25°C° 0 mm 2 mps 746 mmHg 66%
    18:00 +23°C° 0 mm 1 mps 746 mmHg 71%
    19:00 +21°C° 0 mm 1 mps 746 mmHg 77%
    20:00 +17°C° 0 mm 0 mps 746 mmHg 82%
    21:00 +16°C° 0 mm 0 mps 746 mmHg 83%
    22:00 +16°C° 0 mm 0 mps 746 mmHg 84%
    23:00 +16°C° 0 mm 1 mps 746 mmHg 85%

    22 July, Monday

    Time Temperature Precipitation Wind Pressure Humidity
    00:00 +16°C° 0 mm 1 mps 746 mmHg 86%
    01:00 +15°C° 0 mm 1 mps 746 mmHg 87%
    02:00 +15°C° 0 mm 1 mps 745 mmHg 88%
    03:00 +15°C° 0 mm 1 mps 745 mmHg 88%
    04:00 +16°C° 0 mm 1 mps 745 mmHg 88%
    05:00 +16°C° 0 mm 2 mps 745 mmHg 88%
    06:00 +17°C° 0 mm 2 mps 745 mmHg 85%
    07:00 +19°C° 0 mm 2 mps 745 mmHg 83%
    08:00 +20°C° 0 mm 3 mps 744 mmHg 80%
    09:00 +21°C° 0.8 mm 3 mps 744 mmHg 79%
    10:00 +22°C° 0.8 mm 3 mps 744 mmHg 79%
    11:00 +24°C° 0.8 mm 3 mps 744 mmHg 79%
    12:00 +23°C° 1.2 mm 2 mps 744 mmHg 81%
    13:00 +23°C° 1.2 mm 2 mps 743 mmHg 83%
    14:00 +23°C° 1.2 mm 1 mps 743 mmHg 85%
    15:00 +20°C° 0.5 mm 2 mps 743 mmHg 88%
    16:00 +19°C° 0.5 mm 2 mps 743 mmHg 90%
    17:00 +18°C° 0.5 mm 2 mps 743 mmHg 93%
    18:00 +18°C° 0.6 mm 2 mps 743 mmHg 95%
    19:00 +17°C° 0.6 mm 2 mps 743 mmHg 96%
    20:00 +17°C° 0.6 mm 2 mps 742 mmHg 97%
    21:00 +17°C° 0.5 mm 2 mps 742 mmHg 97%
    22:00 +17°C° 0.5 mm 2 mps 742 mmHg 98%
    23:00 +17°C° 0.5 mm 2 mps 742 mmHg 98%

    23 July, Tuesday

    Time Temperature Precipitation Wind Pressure Humidity
    00:00 +17°C° 0.4 mm 2 mps 742 mmHg 98%
    01:00 +17°C° 0.4 mm 2 mps 742 mmHg 98%
    02:00 +17°C° 0.4 mm 2 mps 742 mmHg 98%
    03:00 +17°C° 0.9 mm 2 mps 742 mmHg 98%
    04:00 +16°C° 0.9 mm 3 mps 742 mmHg 98%
    05:00 +16°C° 0.9 mm 3 mps 742 mmHg 98%
    06:00 +15°C° 1.1 mm 4 mps 742 mmHg 97%
    07:00 +15°C° 1.1 mm 4 mps 742 mmHg 97%
    08:00 +14°C° 1.1 mm 5 mps 742 mmHg 96%
    09:00 +14°C° 0.6 mm 4 mps 743 mmHg 96%
    10:00 +15°C° 0.6 mm 4 mps 743 mmHg 95%
    11:00 +15°C° 0.6 mm 4 mps 743 mmHg 95%
    12:00 +15°C° 0.1 mm 4 mps 744 mmHg 95%
    13:00 +15°C° 0.1 mm 4 mps 744 mmHg 94%
    14:00 +15°C° 0.1 mm 4 mps 744 mmHg 94%
    15:00 +15°C° 0 mm 4 mps 744 mmHg 93%
    16:00 +16°C° 0 mm 3 mps 744 mmHg 92%
    17:00 +17°C° 0 mm 3 mps 744 mmHg 91%
    18:00 +17°C° 0 mm 3 mps 744 mmHg 89%
    19:00 +17°C° 0 mm 4 mps 744 mmHg 87%
    20:00 +17°C° 0 mm 4 mps 744 mmHg 85%
    21:00 +15°C° 0.1 mm 4 mps 744 mmHg 86%
    22:00 +15°C° 0.1 mm 4 mps 744 mmHg 86%
    23:00 +16°C° 0.1 mm 3 mps 744 mmHg 87%

    24 July, Wednesday

    Time Temperature Precipitation Wind Pressure Humidity
    00:00 +14°C° 0 mm 3 mps 744 mmHg 88%
    01:00 +13°C° 0 mm 4 mps 744 mmHg 89%
    02:00 +13°C° 0 mm 4 mps 744 mmHg 90%
    03:00 +13°C° 0 mm 4 mps 744 mmHg 90%
    04:00 +12°C° 0 mm 4 mps 744 mmHg 90%
    05:00 +12°C° 0 mm 4 mps 744 mmHg 90%
    06:00 +14°C° 0 mm 4 mps 744 mmHg 86%
    07:00 +15°C° 0 mm 5 mps 744 mmHg 81%
    08:00 +16°C° 0 mm 5 mps 745 mmHg 77%
    09:00 +19°C° 0 mm 5 mps 745 mmHg 70%
    10:00 +20°C° 0 mm 5 mps 745 mmHg 64%
    11:00 +21°C° 0 mm 6 mps 745 mmHg 57%
    12:00 +22°C° 0 mm 5 mps 745 mmHg 57%
    13:00 +22°C° 0 mm 5 mps 745 mmHg 56%
    14:00 +23°C° 0 mm 5 mps 745 mmHg 56%
    15:00 +23°C° 0.1 mm 4 mps 745 mmHg 61%
    16:00 +23°C° 0.1 mm 4 mps 745 mmHg 65%
    17:00 +22°C° 0.1 mm 3 mps 745 mmHg 70%
    18:00 +21°C° 0.2 mm 3 mps 744 mmHg 74%
    19:00 +19°C° 0.2 mm 4 mps 744 mmHg 78%
    20:00 +17°C° 0.2 mm 4 mps 744 mmHg 81%
    21:00 +15°C° 0 mm 4 mps 744 mmHg 83%
    22:00 +15°C° 0 mm 4 mps 744 mmHg 85%
    23:00 +14°C° 0 mm 3 mps 744 mmHg 86%
    Show more